Regional Weather Roundup
Issued by NWS Wakefield, VA

Home | Current Version | Previous Version | Graphics & Text | Print | Product List | Glossary On
Versions: 1 2 3 4 5 6 7 8 9 10 11 12 13 14 15 16 17 18 19 20 21 22 23 24 25 26 27 28 29 30 31
000
ASUS41 KAKQ 211310
RWRAKQ

REGIONAL WEATHER ROUNDUP
NATIONAL WEATHER SERVICE WAKEFIELD VA
900 AM EDT TUE OCT 21 2014

Note: "fair" indicates few or no clouds below 12,000 feet with no
significant weather and/or obstructions to visibility. * = Denotes
station may not report precipitation (e.g., rain,snow,etc.),
thunder or fog.

VAZ042-051-052>054-056-211400-
NORTHERN VIRGINIA

CITY           SKY/WX    TMP DP  RH WIND       PRES   REMARKS
WASH NATIONAL  MOSUNNY   57  49  74 SW5       29.89R
DULLES         MOSUNNY   52  48  86 NW3       29.88R
FORT BELVOIR   SUNNY     51  50  98 NW3       29.90R
QUANTICO       MOSUNNY   55  49  80 CALM      29.90R
FREDERICKSBRG* SUNNY     57  51  81 CALM      29.88R
STAFFORD*      SUNNY     52  52 100 CALM      29.92S
WARRENTON      MOSUNNY   53  53 100 SW3       29.88R
CULPEPER*      MOSUNNY   54  50  87 CALM      29.90R
MANASSAS*      SUNNY     48  48 100 CALM      29.88
LEESBURG*      CLOUDY    52  52 100 CALM      29.90R
WINCHESTER     MOSUNNY   54  45  71 SW3       29.88R
FRONT ROYAL*   PTSUNNY   50  46  87 S3        29.88R
LURAY*         PTSUNNY   52  50  93 CALM      29.89R
$$

VAZ048-049-060>072-079>083-211400-
CENTRAL AND SOUTH CENTRAL VIRGINIA...AND NORTH CENTRAL NORTH CAROLINA

CITY           SKY/WX    TMP DP  RH WIND       PRES   REMARKS
RICHMOND       PTSUNNY   58  50  75 CALM      29.90R
CHESTERFIELD*  MOSUNNY  N/A N/A N/A W5        29.90S
PETERSBURG*    MOSUNNY   55  51  87 CALM      29.91S
HANOVER        SUNNY     55  50  83 W5        29.91R
TAPPAHANNOCK*  MOSUNNY   57  47  70 CALM      29.90R
CHARLOTTSVILLE PTSUNNY   58  49  72 CALM      29.88S
ORANGE*        CLOUDY    54  50  87 CALM      29.90R
LOUISA*        MOSUNNY   54  50  87 CALM      29.88R
FARMVILLE*     MOSUNNY   54  52  94 SW5       29.89S
CREWE*         MOSUNNY   56  49  78 CALM      29.90S
FORT PICKETT*  MOSUNNY   53  50  90 W5        29.91R
LUNENBURG*     MOSUNNY   53  51  92 CALM      29.91R
SOUTH HILL*    MOSUNNY   59  54  82 SW3       29.97R
LAWRENCEVILLE* MOSUNNY   55  52  89 SW3       29.91R
ROANOKE RAPIDS MOSUNNY   55  54  94 SW6       29.93S
RALEIGH        MOSUNNY   56  50  80 SW5       29.94R
$$

VAZ088>098-211400-
SOUTHEAST VIRGINIA

CITY           SKY/WX    TMP DP  RH WIND       PRES   REMARKS
NORFOLK        PTSUNNY   62  56  80 SW9       29.91S
VIRGINIA BEACH PTSUNNY   63  58  83 SW8       29.91S
NORFOLK NAVAL  PTSUNNY   63  55  75 S6        29.93R
WEST POINT*    MOSUNNY   61  53  74 S3        29.92R
NEWPORT NEWS   MOSUNNY   63  56  78 SW8       29.91S
LANGLEY AFB    PTSUNNY   60  60  98 SW8       29.91S
FORT EUSTIS    MOSUNNY   60  60 100 SW6       29.90S
WILLIAMSBURG*  SUNNY     61  55  82 W6        29.92R
HR EXEC AP*    PTSUNNY   59  55  88 CALM      29.94S
FRANKLIN*      MOSUNNY   61  57  88 SW3       29.92S
WAKEFIELD      SUNNY     58  53  84 S3        29.91S
$$

VAZ020-022-025-037-045-211400-
WEST CENTRAL AND SOUTHWEST VIRGINIA

CITY           SKY/WX    TMP DP  RH WIND       PRES   REMARKS
STAUNTON*      PTSUNNY   51  47  84 CALM      29.92R
HOT SPRINGS VA FOG       45  45  99 W10       29.91R VSB<1/4
LYNCHBURG      MOSUNNY   51  49  92 S3        29.92S
DANVILLE       SUNNY     53  50  89 SW5       29.93R
SOUTH BOSTON*  NOT AVBL
MARTINSVILLE   SUNNY     50  50 100 CALM      29.96R
ROANOKE        MOSUNNY   53  47  79 W9        29.95R
BLACKSBURG     MOSUNNY   48  48 100 CALM      29.96S FOG
DUBLIN*        MOSUNNY   53  51  94 SW5       29.96S
MARION*        CLOUDY    52  49  90 SW9       29.98S
HILLSVILLE*    PTSUNNY   50  46  85 W3        29.97R
RICHLANDS*     CLOUDY    52  50  91 SW7       29.97R
WISE*          CLOUDY    50  50 100 SW8       30.00R FOG
ABINGDON*      CLOUDY    53  52  99 W5        29.99R FOG
$$

MDZ021>025-VAZ099-100-211400-
SOUTHERN MARYLAND AND THE DELMARVA PENINSULA

CITY           SKY/WX    TMP DP  RH WIND       PRES   REMARKS
PATUXENT RIVER CLOUDY    58  49  72 SW5       29.88R
BAY BRIDGE APT   N/A     55  50  82 CALM      29.89R
LEONARDTOWN    CLOUDY    55  50  82 CALM      29.89S
DOVER          PTSUNNY   58  57  99 SW6       29.86R
GEORGETOWN     CLOUDY    59  55  87 S7        29.89R
EASTON         SUNNY     57  57 100 CALM      29.92R
CAMBRIDGE      PTSUNNY   57  54  88 SE3       29.88R
SALISBURY      CLOUDY    61  56  83 S3        29.89S
OCEAN CITY     LGT RAIN  61  56  83 W6        29.89F
WALLOPS ISLAND PTSUNNY   63  58  83 SW5       29.90S
ACCOMACK*      MOSUNNY   63  55  77 S7        29.89F
$$

NCZ012>017-030>032-211400-
EASTERN NORTH CAROLINA

CITY           SKY/WX    TMP DP  RH WIND       PRES   REMARKS
ELIZABETH CITY MOSUNNY   65  61  87 SW5       29.93R
AHOSKIE*       MOSUNNY   57  55  93 CALM      29.93S
EDENTON*       MOSUNNY   63  59  88 SW6       29.93S
CURRITUCK*     MOSUNNY   61  58  90 SW3       29.93S
KILL DEVIL HLS MOSUNNY   64  63  94 CALM      29.91S
MANTEO         PTSUNNY   64  62  94 SW3       29.93R
CAPE HATTERAS  MOSUNNY   67  65  93 NW3       29.93R
TARBORO*       PTSUNNY   60  57  91 CALM      29.94S
GOLDSBORO      SUNNY     58  58  98 CALM      29.93R
WASHINGTON     SUNNY     58  56  92 CALM      29.94S
GREENVILLE     SUNNY     61  59  94 SW3       29.96R
NEW BERN       SUNNY     63  58  83 SW5       29.95F
WILMINGTON     MOSUNNY   63  59  87 CALM      29.95S
$$

VAZ048-211400-
ELSEWHERE

CITY           SKY/WX    TMP DP  RH WIND       PRES   REMARKS
HARRISBURG PA  PTSUNNY   53  50  89 SE3       29.87R FOG
BALTIMORE      MOSUNNY   52  49  89 CALM      29.87R
ANNAPOLIS      MOSUNNY   57  48  72 CALM      29.88R
ANDREWS AFB    MOSUNNY   54  50  85 SW2       29.88R
WILMINGTON DE  SUNNY     53  49  86 CALM      29.89R
PHILADELPHIA   MOSUNNY   56  51  84 E3        29.88S
WILDWOOD NJ*   CLOUDY    59  54  82 S3        29.90R
ATLANTIC CITY  MOSUNNY   56  52  86 CALM      29.89R
HENDERSON NC   SUNNY     55  51  86 W5        29.93R
GREENSBORO     MOSUNNY   56  52  86 CALM      29.94R
ROCKY MOUNT    MOSUNNY   59  56  89 SW3       29.94R
FAYETTEVILLE   SUNNY     60  54  80 W6        29.94R
CHARLOTTE      MOSUNNY   57  52  83 CALM      29.97R
$$

VAZ100-211400-
MARINE

STATION/POSITION TIME  TEMP    WIND        PRES    WAVE   SWELL
                       AIR SEA DIR/SP/G            HT/PER HT/PER
                 (UTC) (F)     (DEG/KT/KT) (MB)    (FT/S) (FT/S)
44066 TX TWR #4  1300   65 66  180/  8/ 10 1012.8R   4/ 6   3/ 6
CAPE MAY NJ      1300   63 66  210/  6/  9 1011.6R
LEWES DE         1300   60 63  190/  5/  8 1012.0R
15NM E FENWICK I 1300   65 66  220/ 12/ 17 1012.0R   3/ 6   2/11
OCEAN-CITY-INLET 1300   62 65  230/  8/ 10 1011.9F
WACHAPREAGUE VA  1300   63 62  210/  7/  8 1012.4S
THOMAS POINT MD  1300   57 63  240/  3/  3 1013.1R
GOOSES REEF MD   1300   60     260/ 10/ 12 1012.1R
COVE POINT MD    1300   59     270/ 11/ 12 1011.6R
SOLOMONS ISLAND  1300      65                N/A
BISHOPS HEAD MD  1300   61 58  230/  4/  5 1011.7R
PINEY POINT MD   1300          260/  4/  6   N/A
POTOMAC MD       1300   60     230/ 10/ 12 1011.5R
CAMBRIDGE MD     1300   60 63  170/  2/  4 1011.7R
LEWISETTA VA     1300   58 62  220/  8/  9 1011.7R
RAPPAHANNOCK LGT 1300          210/ 11/ 12 1012.7R
STINGRAY PT      1300   63     220/ 10/ 12 1012.8S
YORK RVR RNG VA  1300   62     240/ 12/ 14 1012.0R
YORKTOWN VA      1300   60 67  220/  8/  9 1012.3R
JAMESTOWN VA     1300   58     210/  6/  8   N/A
DOMINION TERM VA 1300   60     220/  8/  9 1012.8S
KIPTOPEKE VA     1300      69  230/ 10/ 12   N/A
CHES BAY BRIDGE  1300   61 68  200/ 10/ 11 1012.2F
CHESAPEAKE LGHT  1200   64     230/ 15/ 15 1013.2R
WILLOUBY STN VA  1300   61     220/ 11/ 12 1011.4S
S CRANEY ISL VA  1300          190/  2/  4 1012.7S
CAPE HENRY BUOY  1300      68                N/A     2/10   2/11
1ST LANDING BUOY 1300   62     220/ 10/ 12 1012.5R
CAPE CHARLES BUO 1300      68                N/A     2/ 4   2/12
64NM E OF VA BCH 1300   67 69  200/ 16/ 17 1012.3F   4/ 5   2/10
DUCK PIER NC     1300   65 69  220/  7/  8 1012.4F
44100 DUCK FRF   1300      71                N/A     2/13   2/13
44056 DUCK FRF   1300                        N/A     2/13   2/13
OREGON INLET NC  1300   66 66  240/  5/  6 1013.2S
HATTERAS NC      1300   68 71  290/  9/ 12 1013.8R
DIAMOND SHLS NC  1300   70     290/ 14/ 16 1013.3R   3/ 5   2/11
CAPE LOOKOUT NC  1200   68     280/  9/ 11 1013.8F
$$



USA.gov is the U.S. government's official web portal to all federal, state and local government web resources and services.